Location: Łódź
(51.7951°N, 19.4477°E)
Time: 14:38:12
(UTC+01:00)

ISS - Pass Details

Date: 27 January 2019
Orbit: 403 x 411 km, 51.6° (Epoch: 16 February)

Event Time Altitude Azimuth Distance (km) Brightness Sun altitude
Rises 18:23:13 0° 246° (WSW) 2,331 1.4 -18.7°
Reaches altitude 10° 18:25:18 10° 243° (WSW) 1,474 0.0 -19.0°
Enters shadow 18:28:34 61° 163° (SSE) 472 -3.7 -19.5°
